Time,TemperatureF,DewpointF,PressureIn,WindDirection,WindDirectionDegrees,WindSpeedMPH,WindSpeedGustMPH,Humidity,HourlyPrecipIn,Conditions,Clouds,dailyrainin,SolarRadiationWatts/m^2,SoftwareType,DateUTC
2013-09-17 00:02:00,53.1,48.1,30.25,East,80,2.0,6.0,83,0.00,,,0.00,0,Wunderground v.1.15,2013-09-17 05:02:00,
2013-09-17 00:08:00,53.0,48.0,30.25,ENE,76,2.0,6.0,83,0.00,,,0.00,0,Wunderground v.1.15,2013-09-17 05:08:00,
2013-09-17 00:14:00,52.9,48.2,30.25,ENE,74,3.0,6.0,84,0.00,,,0.00,0,Wunderground v.1.15,2013-09-17 05:14:00,
2013-09-17 00:20:00,52.7,48.0,30.25,East,82,3.0,3.0,84,0.00,,,0.00,0,Wunderground v.1.15,2013-09-17 05:20:00,
2013-09-17 00:26:00,52.5,47.8,30.25,ENE,64,2.0,6.0,84,0.00,,,0.00,0,Wunderground v.1.15,2013-09-17 05:26:00,
2013-09-17 00:32:00,52.4,47.7,30.25,East,79,2.0,6.0,84,0.00,,,0.00,0,Wunderground v.1.15,2013-09-17 05:32:00,
2013-09-17 00:38:00,52.2,47.8,30.25,ENE,66,2.0,6.0,85,0.00,,,0.00,0,Wunderground v.1.15,2013-09-17 05:38:00,
2013-09-17 00:44:00,52.0,47.6,30.25,East,98,2.0,6.0,85,0.00,,,0.00,0,Wunderground v.1.15,2013-09-17 05:44:00,
2013-09-17 00:50:00,51.8,47.7,30.25,East,79,2.0,6.0,86,0.00,,,0.00,0,Wunderground v.1.15,2013-09-17 05:50:00,
2013-09-17 00:56:00,51.6,47.5,30.25,East,80,2.0,6.0,86,0.00,,,0.00,0,Wunderground v.1.15,2013-09-17 05:56:00,
2013-09-17 01:02:00,51.4,47.7,30.25,East,82,2.0,6.0,87,0.00,,,0.00,0,Wunderground v.1.15,2013-09-17 06:02:00,
2013-09-17 01:08:00,51.2,47.5,30.25,ENE,78,2.0,6.0,87,0.00,,,0.00,0,Wunderground v.1.15,2013-09-17 06:08:00,
2013-09-17 01:13:00,51.0,47.3,30.25,East,82,2.0,6.0,87,0.00,,,0.00,0,Wunderground v.1.15,2013-09-17 06:13:00,
2013-09-17 01:20:00,50.9,47.5,30.25,East,89,1.0,6.0,88,0.00,,,0.00,0,Wunderground v.1.15,2013-09-17 06:20:00,
2013-09-17 01:26:00,50.8,47.4,30.25,East,79,2.0,6.0,88,0.00,,,0.00,0,Wunderground v.1.15,2013-09-17 06:26:00,
2013-09-17 01:32:00,50.8,47.4,30.25,East,79,2.0,6.0,88,0.00,,,0.00,0,Wunderground v.1.15,2013-09-17 06:32:00,
2013-09-17 01:38:00,50.6,47.2,30.25,East,91,2.0,6.0,88,0.00,,,0.00,0,Wunderground v.1.15,2013-09-17 06:38:00,
2013-09-17 01:44:00,50.5,47.1,30.25,East,81,2.0,6.0,88,0.00,,,0.00,0,Wunderground v.1.15,2013-09-17 06:44:00,
2013-09-17 01:50:00,50.4,48.2,30.25,East,79,2.0,2.0,92,0.00,,,0.00,0,Wunderground v.1.15,2013-09-17 06:50:00,
2013-09-17 01:56:00,50.2,47.1,30.25,ENE,77,1.0,6.0,89,0.00,,,0.00,0,Wunderground v.1.15,2013-09-17 06:56:00,
2013-09-17 02:02:00,50.1,47.0,30.26,ENE,78,1.0,6.0,89,0.00,,,0.00,0,Wunderground v.1.15,2013-09-17 07:02:00,
2013-09-17 02:08:00,50.0,46.9,30.25,ENE,78,0.0,6.0,89,0.00,,,0.00,0,Wunderground v.1.15,2013-09-17 07:08:00,
2013-09-17 02:14:00,50.0,46.9,30.25,ENE,78,1.0,6.0,89,0.00,,,0.00,0,Wunderground v.1.15,2013-09-17 07:14:00,
2013-09-17 02:20:00,49.9,46.8,30.25,ENE,78,1.0,1.0,89,0.00,,,0.00,0,Wunderground v.1.15,2013-09-17 07:20:00,
2013-09-17 02:26:00,49.8,47.0,30.25,ENE,78,0.0,6.0,90,0.00,,,0.00,0,Wunderground v.1.15,2013-09-17 07:26:00,
2013-09-17 02:32:00,49.9,47.1,30.25,ENE,73,1.0,6.0,90,0.00,,,0.00,0,Wunderground v.1.15,2013-09-17 07:32:00,
2013-09-17 02:38:00,49.7,46.9,30.25,ENE,73,1.0,6.0,90,0.00,,,0.00,0,Wunderground v.1.15,2013-09-17 07:38:00,
2013-09-17 02:44:00,49.6,46.8,30.25,ENE,73,0.0,6.0,90,0.00,,,0.00,0,Wunderground v.1.15,2013-09-17 07:44:00,
2013-09-17 02:50:00,49.5,46.7,30.25,ENE,74,0.0,6.0,90,0.00,,,0.00,0,Wunderground v.1.15,2013-09-17 07:50:00,
2013-09-17 02:56:00,49.4,46.6,30.25,ENE,74,0.0,6.0,90,0.00,,,0.00,0,Wunderground v.1.15,2013-09-17 07:56:00,
2013-09-17 03:02:00,49.3,46.5,30.25,ENE,74,0.0,6.0,90,0.00,,,0.00,0,Wunderground v.1.15,2013-09-17 08:02:00,
2013-09-17 03:08:00,49.3,46.8,30.25,ENE,74,0.0,6.0,91,0.00,,,0.00,0,Wunderground v.1.15,2013-09-17 08:08:00,
2013-09-17 03:14:00,49.3,46.8,30.25,ENE,74,1.0,6.0,91,0.00,,,0.00,0,Wunderground v.1.15,2013-09-17 08:14:00,
2013-09-17 03:20:00,49.2,46.7,30.25,ENE,74,2.0,6.0,91,0.00,,,0.00,0,Wunderground v.1.15,2013-09-17 08:20:00,
2013-09-17 03:26:00,49.2,46.7,30.24,ENE,74,2.0,6.0,91,0.00,,,0.00,0,Wunderground v.1.15,2013-09-17 08:26:00,
2013-09-17 03:32:00,49.2,46.7,30.24,ENE,74,1.0,6.0,91,0.00,,,0.00,0,Wunderground v.1.15,2013-09-17 08:32:00,
2013-09-17 03:38:00,49.1,46.6,30.24,ENE,74,0.0,6.0,91,0.00,,,0.00,0,Wunderground v.1.15,2013-09-17 08:38:00,
2013-09-17 03:44:00,49.0,46.5,30.24,ENE,73,0.0,6.0,91,0.00,,,0.00,0,Wunderground v.1.15,2013-09-17 08:44:00,
2013-09-17 03:50:00,49.0,46.5,30.24,ENE,73,0.0,6.0,91,0.00,,,0.00,0,Wunderground v.1.15,2013-09-17 08:50:00,
2013-09-17 03:56:00,49.0,46.5,30.24,ENE,73,0.0,6.0,91,0.00,,,0.00,0,Wunderground v.1.15,2013-09-17 08:56:00,
2013-09-17 04:02:00,49.0,46.8,30.23,ENE,73,0.0,6.0,92,0.00,,,0.00,0,Wunderground v.1.15,2013-09-17 09:02:00,
2013-09-17 04:08:00,49.0,46.8,30.23,ENE,73,0.0,6.0,92,0.00,,,0.00,0,Wunderground v.1.15,2013-09-17 09:08:00,
2013-09-17 04:14:00,49.0,46.8,30.23,ENE,73,0.0,6.0,92,0.00,,,0.00,0,Wunderground v.1.15,2013-09-17 09:14:00,
2013-09-17 04:20:00,49.1,46.9,30.23,ENE,67,0.0,6.0,92,0.00,,,0.00,0,Wunderground v.1.15,2013-09-17 09:20:00,
2013-09-17 04:26:00,49.2,47.0,30.23,ENE,67,1.0,6.0,92,0.00,,,0.00,0,Wunderground v.1.15,2013-09-17 09:26:00,
2013-09-17 04:32:00,49.2,46.7,30.23,ENE,69,2.0,6.0,91,0.00,,,0.00,0,Wunderground v.1.15,2013-09-17 09:32:00,
2013-09-17 04:38:00,49.2,46.7,30.22,ENE,69,1.0,6.0,91,0.00,,,0.00,0,Wunderground v.1.15,2013-09-17 09:38:00,
2013-09-17 04:44:00,49.2,46.7,30.22,ENE,69,2.0,6.0,91,0.00,,,0.00,0,Wunderground v.1.15,2013-09-17 09:44:00,
2013-09-17 04:49:00,49.2,46.7,30.22,ENE,66,3.0,6.0,91,0.00,,,0.00,0,Wunderground v.1.15,2013-09-17 09:49:00,
2013-09-17 04:56:00,49.2,46.7,30.22,ENE,67,2.0,6.0,91,0.00,,,0.00,0,Wunderground v.1.15,2013-09-17 09:56:00,
2013-09-17 05:01:00,49.2,46.7,30.22,NE,55,2.0,6.0,91,0.00,,,0.00,0,Wunderground v.1.15,2013-09-17 10:01:00,
2013-09-17 05:08:00,49.2,46.7,30.22,NE,55,1.0,6.0,91,0.00,,,0.00,0,Wunderground v.1.15,2013-09-17 10:08:00,
2013-09-17 05:14:00,49.3,47.1,30.21,ENE,67,1.0,6.0,92,0.00,,,0.00,0,Wunderground v.1.15,2013-09-17 10:14:00,
2013-09-17 05:20:00,49.3,47.1,30.21,NE,55,2.0,2.0,92,0.00,,,0.00,0,Wunderground v.1.15,2013-09-17 10:20:00,
2013-09-17 05:26:00,49.3,47.1,30.21,NE,55,1.0,6.0,92,0.00,,,0.00,0,Wunderground v.1.15,2013-09-17 10:26:00,
2013-09-17 05:31:00,49.3,47.1,30.21,NE,55,0.0,6.0,92,0.00,,,0.00,0,Wunderground v.1.15,2013-09-17 10:31:00,
2013-09-17 05:38:00,49.4,47.2,30.21,ENE,67,1.0,6.0,92,0.00,,,0.00,0,Wunderground v.1.15,2013-09-17 10:38:00,
2013-09-17 05:44:00,49.3,47.1,30.21,NE,44,3.0,9.0,92,0.00,,,0.00,0,Wunderground v.1.15,2013-09-17 10:44:00,
2013-09-17 05:50:00,49.3,47.1,30.21,ENE,70,3.0,3.0,92,0.00,,,0.00,0,Wunderground v.1.15,2013-09-17 10:50:00,
2013-09-17 05:56:00,49.2,47.0,30.21,East,82,3.0,6.0,92,0.00,,,0.00,0,Wunderground v.1.15,2013-09-17 10:56:00,
2013-09-17 06:02:00,49.0,46.8,30.21,ENE,71,3.0,5.0,92,0.00,,,0.00,0,Wunderground v.1.15,2013-09-17 11:02:00,
2013-09-17 06:08:00,48.8,46.6,30.21,East,97,4.0,6.0,92,0.00,,,0.00,0,Wunderground v.1.15,2013-09-17 11:08:00,
2013-09-17 06:14:00,48.6,46.4,30.21,East,100,3.0,6.0,92,0.00,,,0.00,0,Wunderground v.1.15,2013-09-17 11:14:00,
2013-09-17 06:20:00,48.4,46.2,30.21,East,90,1.0,1.0,92,0.00,,,0.00,0,Wunderground v.1.15,2013-09-17 11:20:00,
2013-09-17 06:26:00,48.2,46.0,30.21,East,93,1.0,6.0,92,0.00,,,0.00,0,Wunderground v.1.15,2013-09-17 11:26:00,
2013-09-17 06:32:00,47.9,46.0,30.21,East,101,2.0,6.0,93,0.00,,,0.00,0,Wunderground v.1.15,2013-09-17 11:32:00,
2013-09-17 06:38:00,47.8,45.9,30.21,East,100,1.0,6.0,93,0.00,,,0.00,0,Wunderground v.1.15,2013-09-17 11:38:00,
2013-09-17 06:44:00,47.7,45.8,30.22,East,98,0.0,6.0,93,0.00,,,0.00,0,Wunderground v.1.15,2013-09-17 11:44:00,
2013-09-17 06:50:00,47.6,45.7,30.22,East,98,0.0,6.0,93,0.00,,,0.00,5,Wunderground v.1.15,2013-09-17 11:50:00,
2013-09-17 06:56:00,47.6,45.7,30.22,East,96,0.0,6.0,93,0.00,,,0.00,9,Wunderground v.1.15,2013-09-17 11:56:00,
2013-09-17 07:02:00,47.7,46.1,30.22,East,89,0.0,6.0,94,0.00,,,0.00,11,Wunderground v.1.15,2013-09-17 12:02:00,
2013-09-17 07:08:00,47.7,46.1,30.22,East,87,0.0,6.0,94,0.00,,,0.00,19,Wunderground v.1.15,2013-09-17 12:08:00,
2013-09-17 07:14:00,47.8,46.2,30.22,East,85,0.0,6.0,94,0.00,,,0.00,30,Wunderground v.1.15,2013-09-17 12:14:00,
2013-09-17 07:20:00,47.8,46.2,30.22,ENE,74,0.0,6.0,94,0.00,,,0.00,39,Wunderground v.1.15,2013-09-17 12:20:00,
2013-09-17 07:26:00,47.9,46.3,30.22,ENE,75,1.0,6.0,94,0.00,,,0.00,49,Wunderground v.1.15,2013-09-17 12:26:00,
2013-09-17 07:32:00,48.1,46.5,30.22,ENE,75,3.0,6.0,94,0.00,,,0.00,65,Wunderground v.1.15,2013-09-17 12:32:00,
2013-09-17 07:38:00,48.3,46.7,30.23,ENE,69,3.0,6.0,94,0.00,,,0.00,90,Wunderground v.1.15,2013-09-17 12:38:00,
2013-09-17 07:44:00,48.6,47.0,30.22,ENE,67,3.0,6.0,94,0.00,,,0.00,123,Wunderground v.1.15,2013-09-17 12:44:00,
2013-09-17 07:50:00,48.9,47.2,30.22,ENE,69,3.0,6.0,94,0.00,,,0.00,142,Wunderground v.1.15,2013-09-17 12:50:00,
2013-09-17 07:56:00,49.4,47.7,30.22,ENE,76,3.0,6.0,94,0.00,,,0.00,221,Wunderground v.1.15,2013-09-17 12:56:00,
2013-09-17 08:02:00,49.9,48.2,30.22,East,88,4.0,6.0,94,0.00,,,0.00,221,Wunderground v.1.15,2013-09-17 13:02:00,
2013-09-17 08:08:00,50.4,48.7,30.22,East,93,5.0,6.0,94,0.00,,,0.00,214,Wunderground v.1.15,2013-09-17 13:08:00,
2013-09-17 08:14:00,50.6,48.7,30.22,ESE,107,5.0,6.0,93,0.00,,,0.00,132,Wunderground v.1.15,2013-09-17 13:14:00,
2013-09-17 08:20:00,50.6,48.7,30.22,ESE,105,5.0,5.0,93,0.00,,,0.00,113,Wunderground v.1.15,2013-09-17 13:20:00,
2013-09-17 08:26:00,50.6,48.7,30.22,ESE,103,4.0,6.0,93,0.00,,,0.00,123,Wunderground v.1.15,2013-09-17 13:26:00,
2013-09-17 08:31:00,50.9,48.9,30.22,ENE,76,4.0,6.0,93,0.00,,,0.00,181,Wunderground v.1.15,2013-09-17 13:31:00,
2013-09-17 08:38:00,51.5,49.5,30.22,East,80,4.0,6.0,93,0.00,,,0.00,188,Wunderground v.1.15,2013-09-17 13:38:00,
2013-09-17 08:44:00,52.2,50.5,30.22,East,85,4.0,6.0,94,0.00,,,0.00,260,Wunderground v.1.15,2013-09-17 13:44:00,
2013-09-17 08:50:00,53.0,51.0,30.21,ESE,108,4.0,6.0,93,0.00,,,0.00,267,Wunderground v.1.15,2013-09-17 13:50:00,
2013-09-17 08:56:00,53.5,51.2,30.21,ESE,107,5.0,6.0,92,0.00,,,0.00,366,Wunderground v.1.15,2013-09-17 13:56:00,
2013-09-17 09:02:00,54.4,51.8,30.21,East,88,4.0,10.0,91,0.00,,,0.00,443,Wunderground v.1.15,2013-09-17 14:02:00,
2013-09-17 09:08:00,55.0,52.1,30.21,ESE,108,6.0,10.0,90,0.00,,,0.00,455,Wunderground v.1.15,2013-09-17 14:08:00,
2013-09-17 09:14:00,55.7,52.5,30.21,ENE,65,6.0,7.0,89,0.00,,,0.00,316,Wunderground v.1.15,2013-09-17 14:14:00,
2013-09-17 09:20:00,56.2,52.4,30.21,ENE,74,5.0,5.0,87,0.00,,,0.00,199,Wunderground v.1.15,2013-09-17 14:20:00,
2013-09-17 09:26:00,56.5,52.7,30.21,ESE,109,5.0,6.0,87,0.00,,,0.00,174,Wunderground v.1.15,2013-09-17 14:26:00,
2013-09-17 09:32:00,56.8,53.0,30.21,ENE,76,4.0,8.0,87,0.00,,,0.00,206,Wunderground v.1.15,2013-09-17 14:32:00,
2013-09-17 09:38:00,57.4,53.6,30.21,ESE,107,4.0,10.0,87,0.00,,,0.00,508,Wunderground v.1.15,2013-09-17 14:38:00,
2013-09-17 09:44:00,58.4,53.9,30.21,East,96,5.0,6.0,85,0.00,,,0.00,529,Wunderground v.1.15,2013-09-17 14:44:00,
2013-09-17 09:50:00,59.3,54.1,30.21,ESE,108,6.0,11.0,83,0.00,,,0.00,728,Wunderground v.1.15,2013-09-17 14:50:00,
2013-09-17 09:56:00,60.4,54.2,30.20,ENE,76,7.0,11.0,80,0.00,,,0.00,752,Wunderground v.1.15,2013-09-17 14:56:00,
2013-09-17 10:02:00,60.6,54.4,30.20,East,98,7.0,7.0,80,0.00,,,0.00,338,Wunderground v.1.15,2013-09-17 15:02:00,
2013-09-17 10:08:00,60.9,54.3,30.20,ESE,106,6.0,8.0,79,0.00,,,0.00,353,Wunderground v.1.15,2013-09-17 15:08:00,
2013-09-17 10:14:00,61.1,54.5,30.20,ESE,103,5.0,10.0,79,0.00,,,0.00,271,Wunderground v.1.15,2013-09-17 15:14:00,
2013-09-17 10:20:00,61.3,54.4,30.19,ESE,107,6.0,6.0,78,0.00,,,0.00,258,Wunderground v.1.15,2013-09-17 15:20:00,
2013-09-17 10:26:00,61.4,54.5,30.19,East,80,7.0,8.0,78,0.00,,,0.00,251,Wunderground v.1.15,2013-09-17 15:26:00,
2013-09-17 10:32:00,61.7,54.8,30.19,ESE,106,7.0,9.0,78,0.00,,,0.00,264,Wunderground v.1.15,2013-09-17 15:32:00,
2013-09-17 10:38:00,61.9,54.6,30.19,ESE,109,7.0,9.0,77,0.00,,,0.00,287,Wunderground v.1.15,2013-09-17 15:38:00,
2013-09-17 10:44:00,62.1,55.2,30.19,ENE,74,7.0,8.0,78,0.00,,,0.00,308,Wunderground v.1.15,2013-09-17 15:44:00,
2013-09-17 10:50:00,62.3,55.0,30.19,ESE,105,5.0,6.0,77,0.00,,,0.00,383,Wunderground v.1.15,2013-09-17 15:50:00,
2013-09-17 10:56:00,62.5,55.5,30.19,East,98,6.0,10.0,78,0.00,,,0.00,461,Wunderground v.1.15,2013-09-17 15:56:00,
2013-09-17 11:02:00,63.0,55.3,30.18,ESE,109,5.0,6.0,76,0.00,,,0.00,325,Wunderground v.1.15,2013-09-17 16:02:00,
2013-09-17 11:08:00,63.1,55.4,30.19,ESE,105,7.0,12.0,76,0.00,,,0.00,399,Wunderground v.1.15,2013-09-17 16:08:00,
2013-09-17 11:14:00,63.3,56.0,30.19,ESE,106,8.0,11.0,77,0.00,,,0.00,366,Wunderground v.1.15,2013-09-17 16:14:00,
2013-09-17 11:20:00,63.6,55.9,30.18,ESE,106,6.0,6.0,76,0.00,,,0.00,329,Wunderground v.1.15,2013-09-17 16:20:00,
2013-09-17 11:26:00,63.9,55.8,30.17,ESE,107,6.0,9.0,75,0.00,,,0.00,320,Wunderground v.1.15,2013-09-17 16:26:00,
2013-09-17 11:32:00,64.4,56.3,30.17,ESE,106,6.0,7.0,75,0.00,,,0.00,313,Wunderground v.1.15,2013-09-17 16:32:00,
2013-09-17 11:40:00,65.3,56.8,30.17,ESE,106,6.0,11.0,74,0.00,,,0.00,348,Wunderground v.1.15,2013-09-17 16:40:00,
2013-09-17 11:46:00,65.6,56.7,30.17,ESE,110,6.0,11.0,73,0.00,,,0.00,394,Wunderground v.1.15,2013-09-17 16:46:00,
2013-09-17 11:52:00,65.9,56.6,30.17,East,99,6.0,12.0,72,0.00,,,0.00,420,Wunderground v.1.15,2013-09-17 16:52:00,
2013-09-17 11:58:00,66.1,57.2,30.17,East,97,8.0,12.0,73,0.00,,,0.00,425,Wunderground v.1.15,2013-09-17 16:58:00,
2013-09-17 12:04:00,66.6,57.3,30.17,ESE,105,8.0,11.0,72,0.00,,,0.00,490,Wunderground v.1.15,2013-09-17 17:04:00,
2013-09-17 12:10:00,66.9,57.6,30.16,East,92,7.0,9.0,72,0.00,,,0.00,399,Wunderground v.1.15,2013-09-17 17:10:00,
2013-09-17 12:16:00,66.9,57.2,30.16,ESE,107,8.0,9.0,71,0.00,,,0.00,373,Wunderground v.1.15,2013-09-17 17:16:00,
2013-09-17 12:22:00,67.1,57.0,30.16,ESE,105,9.0,13.0,70,0.00,,,0.00,359,Wunderground v.1.15,2013-09-17 17:22:00,
2013-09-17 12:28:00,67.2,57.5,30.16,ESE,107,10.0,15.0,71,0.00,,,0.00,308,Wunderground v.1.15,2013-09-17 17:28:00,
2013-09-17 12:33:00,67.3,57.6,30.16,ESE,106,6.0,9.0,71,0.00,,,0.00,294,Wunderground v.1.15,2013-09-17 17:33:00,
2013-09-17 12:40:00,67.2,57.5,30.16,ESE,106,7.0,10.0,71,0.00,,,0.00,288,Wunderground v.1.15,2013-09-17 17:40:00,
2013-09-17 12:46:00,67.3,57.6,30.16,North,360,8.0,10.0,71,0.00,,,0.00,295,Wunderground v.1.15,2013-09-17 17:46:00,
2013-09-17 12:52:00,67.5,57.8,30.15,ESE,123,7.0,13.0,71,0.00,,,0.00,350,Wunderground v.1.15,2013-09-17 17:52:00,
2013-09-17 12:58:00,67.7,57.6,30.15,ESE,107,7.0,13.0,70,0.00,,,0.00,320,Wunderground v.1.15,2013-09-17 17:58:00,
2013-09-17 13:03:00,67.8,57.7,30.15,ESE,117,7.0,8.0,70,0.00,,,0.00,292,Wunderground v.1.15,2013-09-17 18:03:00,
2013-09-17 13:10:00,67.7,57.6,30.15,SSW,196,8.0,8.0,70,0.00,,,0.00,359,Wunderground v.1.15,2013-09-17 18:10:00,
2013-09-17 13:16:00,68.1,57.9,30.14,ESE,106,6.0,10.0,70,0.00,,,0.00,410,Wunderground v.1.15,2013-09-17 18:16:00,
2013-09-17 13:22:00,68.3,58.5,30.14,ESE,123,8.0,18.0,71,0.00,,,0.00,512,Wunderground v.1.15,2013-09-17 18:22:00,
2013-09-17 13:28:00,68.6,58.0,30.14,South,184,8.0,18.0,69,0.00,,,0.00,378,Wunderground v.1.15,2013-09-17 18:28:00,
2013-09-17 13:34:00,68.9,57.9,30.14,ESE,109,7.0,16.0,68,0.00,,,0.00,302,Wunderground v.1.15,2013-09-17 18:34:00,
2013-09-17 13:40:00,68.7,58.1,30.14,ESE,109,7.0,7.0,69,0.00,,,0.00,294,Wunderground v.1.15,2013-09-17 18:40:00,
2013-09-17 13:46:00,68.7,58.1,30.13,North,360,5.0,9.0,69,0.00,,,0.00,265,Wunderground v.1.15,2013-09-17 18:46:00,
2013-09-17 13:52:00,68.7,58.5,30.13,North,360,5.0,6.0,70,0.00,,,0.00,325,Wunderground v.1.15,2013-09-17 18:52:00,
2013-09-17 13:58:00,68.6,58.8,30.13,ESE,108,7.0,14.0,71,0.00,,,0.00,325,Wunderground v.1.15,2013-09-17 18:58:00,
2013-09-17 14:04:00,68.6,58.4,30.12,ESE,118,8.0,8.0,70,0.00,,,0.00,309,Wunderground v.1.15,2013-09-17 19:04:00,
2013-09-17 14:10:00,68.6,58.4,30.12,ESE,107,8.0,8.0,70,0.00,,,0.00,304,Wunderground v.1.15,2013-09-17 19:10:00,
2013-09-17 14:16:00,68.3,58.5,30.12,ESE,110,10.0,10.0,71,0.00,,,0.00,229,Wunderground v.1.15,2013-09-17 19:16:00,
2013-09-17 14:22:00,68.2,58.4,30.12,ESE,105,9.0,13.0,71,0.00,,,0.00,155,Wunderground v.1.15,2013-09-17 19:22:00,
2013-09-17 14:28:00,68.1,58.3,30.11,ESE,107,9.0,13.0,71,0.00,,,0.00,146,Wunderground v.1.15,2013-09-17 19:28:00,
2013-09-17 14:34:00,68.2,58.8,30.11,ESE,107,6.0,8.0,72,0.00,,,0.00,137,Wunderground v.1.15,2013-09-17 19:34:00,
2013-09-17 14:40:00,68.3,58.9,30.11,ESE,107,6.0,6.0,72,0.00,,,0.00,132,Wunderground v.1.15,2013-09-17 19:40:00,
2013-09-17 14:46:00,68.4,59.0,30.10,ESE,123,5.0,6.0,72,0.00,,,0.00,135,Wunderground v.1.15,2013-09-17 19:46:00,
2013-09-17 14:52:00,68.4,59.0,30.10,ESE,109,6.0,10.0,72,0.00,,,0.00,183,Wunderground v.1.15,2013-09-17 19:52:00,
2013-09-17 14:58:00,68.4,59.0,30.10,ESE,105,8.0,13.0,72,0.00,,,0.00,156,Wunderground v.1.15,2013-09-17 19:58:00,
2013-09-17 15:04:00,68.5,59.1,30.09,ESE,109,7.0,9.0,72,0.00,,,0.00,149,Wunderground v.1.15,2013-09-17 20:04:00,
2013-09-17 15:10:00,68.5,59.1,30.09,ESE,109,7.0,8.0,72,0.00,,,0.00,139,Wunderground v.1.15,2013-09-17 20:10:00,
2013-09-17 15:16:00,68.4,59.0,30.09,ESE,107,7.0,8.0,72,0.00,,,0.00,104,Wunderground v.1.15,2013-09-17 20:16:00,
2013-09-17 15:22:00,68.3,59.3,30.09,ESE,117,6.0,6.0,73,0.00,,,0.00,84,Wunderground v.1.15,2013-09-17 20:22:00,
2013-09-17 15:28:00,68.2,59.2,30.09,ESE,105,6.0,11.0,73,0.00,,,0.00,102,Wunderground v.1.15,2013-09-17 20:28:00,
2013-09-17 15:34:00,67.9,59.7,30.09,ESE,109,6.0,9.0,75,0.00,,,0.00,109,Wunderground v.1.15,2013-09-17 20:34:00,
2013-09-17 15:40:00,67.8,59.2,30.09,ESE,107,7.0,7.0,74,0.00,,,0.00,137,Wunderground v.1.15,2013-09-17 20:40:00,
2013-09-17 15:46:00,67.9,59.3,30.08,ESE,109,5.0,7.0,74,0.00,,,0.00,209,Wunderground v.1.15,2013-09-17 20:46:00,
2013-09-17 15:52:00,68.1,59.5,30.08,ESE,108,5.0,6.0,74,0.00,,,0.00,172,Wunderground v.1.15,2013-09-17 20:52:00,
2013-09-17 15:58:00,68.3,59.3,30.08,ESE,110,6.0,10.0,73,0.00,,,0.00,181,Wunderground v.1.15,2013-09-17 20:58:00,
2013-09-17 16:04:00,68.5,59.5,30.08,ESE,109,8.0,8.0,73,0.00,,,0.00,244,Wunderground v.1.15,2013-09-17 21:04:00,
2013-09-17 16:09:00,68.8,59.8,30.08,ESE,106,7.0,7.0,73,0.00,,,0.00,127,Wunderground v.1.15,2013-09-17 21:09:00,
2013-09-17 16:16:00,68.8,59.4,30.08,ESE,119,5.0,7.0,72,0.00,,,0.00,183,Wunderground v.1.15,2013-09-17 21:16:00,
2013-09-17 16:22:00,68.9,59.5,30.08,ESE,105,7.0,9.0,72,0.00,,,0.00,149,Wunderground v.1.15,2013-09-17 21:22:00,
2013-09-17 16:28:00,68.8,59.4,30.07,ESE,105,9.0,12.0,72,0.00,,,0.00,176,Wunderground v.1.15,2013-09-17 21:28:00,
2013-09-17 16:34:00,68.9,59.5,30.07,ESE,104,8.0,10.0,72,0.00,,,0.00,190,Wunderground v.1.15,2013-09-17 21:34:00,
2013-09-17 16:39:00,69.0,59.6,30.07,ESE,107,7.0,7.0,72,0.00,,,0.00,142,Wunderground v.1.15,2013-09-17 21:39:00,
2013-09-17 16:46:00,69.1,59.3,30.07,ESE,109,7.0,12.0,71,0.00,,,0.00,144,Wunderground v.1.15,2013-09-17 21:46:00,
2013-09-17 16:52:00,69.2,59.4,30.07,ESE,110,7.0,9.0,71,0.00,,,0.00,118,Wunderground v.1.15,2013-09-17 21:52:00,
2013-09-17 16:58:00,69.2,59.4,30.06,ESE,106,7.0,14.0,71,0.00,,,0.00,102,Wunderground v.1.15,2013-09-17 21:58:00,
2013-09-17 17:04:00,69.2,59.4,30.07,ESE,109,7.0,10.0,71,0.00,,,0.00,88,Wunderground v.1.15,2013-09-17 22:04:00,
2013-09-17 17:09:00,69.2,59.4,30.06,ESE,107,6.0,6.0,71,0.00,,,0.00,69,Wunderground v.1.15,2013-09-17 22:09:00,
2013-09-17 17:16:00,69.2,59.8,30.06,ESE,108,5.0,9.0,72,0.00,,,0.00,84,Wunderground v.1.15,2013-09-17 22:16:00,
2013-09-17 17:22:00,69.2,59.4,30.06,ESE,110,4.0,5.0,71,0.00,,,0.00,69,Wunderground v.1.15,2013-09-17 22:22:00,
2013-09-17 17:28:00,69.3,59.9,30.06,ESE,110,4.0,6.0,72,0.00,,,0.00,60,Wunderground v.1.15,2013-09-17 22:28:00,
2013-09-17 17:34:00,69.3,59.9,30.06,ESE,109,2.0,6.0,72,0.00,,,0.00,40,Wunderground v.1.15,2013-09-17 22:34:00,
2013-09-17 17:40:00,69.2,59.8,30.06,ESE,109,1.0,6.0,72,0.00,,,0.00,26,Wunderground v.1.15,2013-09-17 22:40:00,
2013-09-17 17:46:00,69.2,59.8,30.06,ESE,110,1.0,6.0,72,0.00,,,0.00,23,Wunderground v.1.15,2013-09-17 22:46:00,
2013-09-17 17:52:00,69.0,59.6,30.06,ESE,110,0.0,3.0,72,0.00,,,0.00,21,Wunderground v.1.15,2013-09-17 22:52:00,
2013-09-17 17:58:00,69.0,60.0,30.06,ESE,110,0.0,6.0,73,0.00,,,0.00,26,Wunderground v.1.15,2013-09-17 22:58:00,
2013-09-17 18:04:00,68.8,59.8,30.05,ESE,110,0.0,6.0,73,0.00,,,0.00,30,Wunderground v.1.15,2013-09-17 23:04:00,
2013-09-17 18:10:00,68.8,60.2,30.05,ESE,110,1.0,1.0,74,0.00,,,0.00,35,Wunderground v.1.15,2013-09-17 23:10:00,
2013-09-17 18:16:00,68.7,60.1,30.05,ESE,110,0.0,6.0,74,0.00,,,0.00,32,Wunderground v.1.15,2013-09-17 23:16:00,
2013-09-17 18:22:00,68.6,60.0,30.05,ESE,110,0.0,6.0,74,0.00,,,0.00,26,Wunderground v.1.15,2013-09-17 23:22:00,
2013-09-17 18:28:00,68.6,60.4,30.05,ESE,110,0.0,6.0,75,0.00,,,0.00,21,Wunderground v.1.15,2013-09-17 23:28:00,
2013-09-17 18:34:00,68.5,60.3,30.05,ESE,110,0.0,6.0,75,0.00,,,0.00,21,Wunderground v.1.15,2013-09-17 23:34:00,
2013-09-17 18:42:00,68.4,60.2,30.04,ESE,109,0.0,6.0,75,0.00,,,0.00,21,Wunderground v.1.15,2013-09-17 23:42:00,
2013-09-17 18:48:00,68.4,60.2,30.04,ESE,109,0.0,6.0,75,0.00,,,0.00,16,Wunderground v.1.15,2013-09-17 23:48:00,
2013-09-17 18:54:00,68.3,60.4,30.04,ESE,109,0.0,6.0,76,0.00,,,0.00,12,Wunderground v.1.15,2013-09-17 23:54:00,
2013-09-17 19:00:00,68.2,60.7,30.03,ESE,109,0.0,6.0,77,0.00,,,0.00,7,Wunderground v.1.15,2013-09-18 00:00:00,
2013-09-17 19:06:00,68.1,60.6,30.03,ESE,109,0.0,6.0,77,0.00,,,0.00,0,Wunderground v.1.15,2013-09-18 00:06:00,
2013-09-17 19:12:00,68.0,60.5,30.03,ESE,109,0.0,6.0,77,0.00,,,0.00,0,Wunderground v.1.15,2013-09-18 00:12:00,
2013-09-17 19:18:00,67.9,60.8,30.04,ESE,109,0.0,6.0,78,0.00,,,0.00,0,Wunderground v.1.15,2013-09-18 00:18:00,
2013-09-17 19:24:00,67.7,60.6,30.04,ESE,109,0.0,6.0,78,0.00,,,0.00,0,Wunderground v.1.15,2013-09-18 00:24:00,
2013-09-17 19:30:00,67.6,60.9,30.04,ESE,109,0.0,6.0,79,0.00,,,0.00,0,Wunderground v.1.15,2013-09-18 00:30:00,
2013-09-17 19:36:00,67.5,60.8,30.04,ESE,109,0.0,6.0,79,0.00,,,0.00,0,Wunderground v.1.15,2013-09-18 00:36:00,
2013-09-17 19:42:00,67.3,60.6,30.04,ESE,109,0.0,6.0,79,0.00,,,0.00,0,Wunderground v.1.15,2013-09-18 00:42:00,
2013-09-17 19:48:00,67.2,60.8,30.04,ESE,109,0.0,6.0,80,0.00,,,0.00,0,Wunderground v.1.15,2013-09-18 00:48:00,
2013-09-17 19:54:00,67.1,60.7,30.04,ESE,109,0.0,6.0,80,0.00,,,0.00,0,Wunderground v.1.15,2013-09-18 00:54:00,
2013-09-17 20:00:00,67.0,61.0,30.04,ESE,109,0.0,6.0,81,0.00,,,0.00,0,Wunderground v.1.15,2013-09-18 01:00:00,
2013-09-17 20:06:00,66.9,60.9,30.04,ESE,109,0.0,6.0,81,0.00,,,0.00,0,Wunderground v.1.15,2013-09-18 01:06:00,
2013-09-17 20:12:00,66.9,60.9,30.03,ESE,109,0.0,6.0,81,0.00,,,0.00,0,Wunderground v.1.15,2013-09-18 01:12:00,
2013-09-17 20:18:00,66.9,60.9,30.03,ESE,109,1.0,6.0,81,0.00,,,0.00,0,Wunderground v.1.15,2013-09-18 01:18:00,
2013-09-17 20:24:00,67.0,61.0,30.03,ESE,109,3.0,6.0,81,0.00,,,0.00,0,Wunderground v.1.15,2013-09-18 01:24:00,
2013-09-17 20:29:00,67.0,61.3,30.03,ESE,109,4.0,4.0,82,0.00,,,0.00,0,Wunderground v.1.15,2013-09-18 01:29:00,
2013-09-17 20:36:00,66.9,61.2,30.03,ESE,109,4.0,6.0,82,0.00,,,0.00,0,Wunderground v.1.15,2013-09-18 01:36:00,
2013-09-17 20:42:00,66.8,61.1,30.03,ESE,110,4.0,6.0,82,0.00,,,0.00,0,Wunderground v.1.15,2013-09-18 01:42:00,
2013-09-17 20:48:00,66.8,61.1,30.03,ESE,110,2.0,6.0,82,0.00,,,0.00,0,Wunderground v.1.15,2013-09-18 01:48:00,
2013-09-17 20:54:00,66.7,61.0,30.03,ESE,110,0.0,6.0,82,0.00,,,0.00,0,Wunderground v.1.15,2013-09-18 01:54:00,
2013-09-17 21:00:00,66.6,60.9,30.03,ESE,110,0.0,6.0,82,0.00,,,0.00,0,Wunderground v.1.15,2013-09-18 02:00:00,
2013-09-17 21:06:00,66.5,61.2,30.03,ESE,110,1.0,6.0,83,0.00,,,0.00,0,Wunderground v.1.15,2013-09-18 02:06:00,
2013-09-17 21:12:00,66.4,61.1,30.03,ESE,110,4.0,6.0,83,0.00,,,0.00,0,Wunderground v.1.15,2013-09-18 02:12:00,
2013-09-17 21:18:00,66.3,61.0,30.03,ESE,107,5.0,7.0,83,0.00,,,0.00,0,Wunderground v.1.15,2013-09-18 02:18:00,
2013-09-17 21:24:00,66.3,61.0,30.02,ESE,107,6.0,7.0,83,0.00,,,0.00,0,Wunderground v.1.15,2013-09-18 02:24:00,
2013-09-17 21:30:00,66.3,61.3,30.02,ESE,107,7.0,7.0,84,0.00,,,0.00,0,Wunderground v.1.15,2013-09-18 02:30:00,
2013-09-17 21:36:00,66.1,61.1,30.02,ESE,106,7.0,7.0,84,0.00,,,0.00,0,Wunderground v.1.15,2013-09-18 02:36:00,
2013-09-17 21:42:00,66.1,61.1,30.03,ESE,105,6.0,7.0,84,0.00,,,0.00,0,Wunderground v.1.15,2013-09-18 02:42:00,
2013-09-17 21:48:00,66.1,60.8,30.02,ESE,107,6.0,8.0,83,0.00,,,0.00,0,Wunderground v.1.15,2013-09-18 02:48:00,
2013-09-17 21:54:00,66.1,60.8,30.03,ESE,107,6.0,11.0,83,0.00,,,0.00,0,Wunderground v.1.15,2013-09-18 02:54:00,
2013-09-17 22:00:00,66.1,60.8,30.02,ESE,107,6.0,6.0,83,0.00,,,0.00,0,Wunderground v.1.15,2013-09-18 03:00:00,
2013-09-17 22:06:00,66.0,61.0,30.03,ESE,107,5.0,6.0,84,0.00,,,0.00,0,Wunderground v.1.15,2013-09-18 03:06:00,
2013-09-17 22:12:00,65.9,60.9,30.03,ESE,107,4.0,6.0,84,0.00,,,0.00,0,Wunderground v.1.15,2013-09-18 03:12:00,
2013-09-17 22:18:00,65.8,60.8,30.02,ESE,107,3.0,6.0,84,0.00,,,0.00,0,Wunderground v.1.15,2013-09-18 03:18:00,
2013-09-17 22:24:00,65.6,60.6,30.02,ESE,107,3.0,6.0,84,0.00,,,0.00,0,Wunderground v.1.15,2013-09-18 03:24:00,
2013-09-17 22:30:00,65.4,60.4,30.02,ESE,107,3.0,6.0,84,0.00,,,0.00,0,Wunderground v.1.15,2013-09-18 03:30:00,
2013-09-17 22:36:00,65.4,60.8,30.02,ESE,107,4.0,6.0,85,0.00,,,0.00,0,Wunderground v.1.15,2013-09-18 03:36:00,
2013-09-17 22:42:00,65.3,60.7,30.02,ESE,107,4.0,6.0,85,0.00,,,0.00,0,Wunderground v.1.15,2013-09-18 03:42:00,
2013-09-17 22:48:00,65.3,60.7,30.02,ESE,106,4.0,6.0,85,0.00,,,0.00,0,Wunderground v.1.15,2013-09-18 03:48:00,
2013-09-17 22:54:00,65.2,60.2,30.02,ESE,107,4.0,6.0,84,0.00,,,0.00,0,Wunderground v.1.15,2013-09-18 03:54:00,
2013-09-17 23:00:00,65.1,60.1,30.02,ESE,107,4.0,4.0,84,0.00,,,0.00,0,Wunderground v.1.15,2013-09-18 04:00:00,
2013-09-17 23:02:00,65.1,60.1,30.02,ESE,107,3.0,6.0,84,0.00,,,0.00,0,Wunderground v.1.15,2013-09-18 04:02:00,
2013-09-17 23:06:00,65.0,60.4,30.02,ESE,107,2.0,6.0,85,0.00,,,0.00,0,Wunderground v.1.15,2013-09-18 04:06:00,
2013-09-17 23:08:00,65.0,60.4,30.02,ESE,107,1.0,6.0,85,0.00,,,0.00,0,Wunderground v.1.15,2013-09-18 04:08:00,
2013-09-17 23:10:00,64.9,60.3,30.02,ESE,107,0.0,6.0,85,0.00,,,0.00,0,Wunderground v.1.15,2013-09-18 04:10:00,
2013-09-17 23:14:00,64.9,60.3,30.01,ESE,107,0.0,6.0,85,0.00,,,0.00,0,Wunderground v.1.15,2013-09-18 04:14:00,
2013-09-17 23:20:00,64.7,60.1,30.02,ESE,107,0.0,6.0,85,0.00,,,0.00,0,Wunderground v.1.15,2013-09-18 04:20:00,
2013-09-17 23:26:00,64.6,60.0,30.02,ESE,107,0.0,6.0,85,0.00,,,0.00,0,Wunderground v.1.15,2013-09-18 04:26:00,
2013-09-17 23:32:00,64.5,59.9,30.02,ESE,107,0.0,6.0,85,0.00,,,0.00,0,Wunderground v.1.15,2013-09-18 04:32:00,
2013-09-17 23:38:00,64.4,59.8,30.02,ESE,107,0.0,6.0,85,0.00,,,0.00,0,Wunderground v.1.15,2013-09-18 04:38:00,
2013-09-17 23:44:00,64.4,59.8,30.01,ESE,107,1.0,6.0,85,0.00,,,0.00,0,Wunderground v.1.15,2013-09-18 04:44:00,
2013-09-17 23:50:00,64.4,59.8,30.01,ESE,107,0.0,6.0,85,0.00,,,0.00,0,Wunderground v.1.15,2013-09-18 04:50:00,
2013-09-17 23:56:00,64.4,59.8,30.01,ESE,107,0.0,6.0,85,0.00,,,0.00,0,Wunderground v.1.15,2013-09-18 04:56:00,